Simultaneous Nadir Overpasses (SNOs) Predictions

Prediction of SNOs between GOES-16 and METOP-B Satellite Orbit:

Table of predicted SNOs for the next 14.0 days since TLE Epoch: 10/3/2025
Index Date Time (GOES-16) GOES-16 Lat,Lon METOP-B Lat,Lon Distance(km) Time Diff (sec)
1 10/04/2025 04:11:31 -0.07,-104.67 -0.64,-107.29 298.19 80
2 10/05/2025 03:48:18 -0.06,-104.67 0.46,-102.32 267.51 80
3 10/06/2025 16:07:20 0.07,-104.72 0.58,-106.92 251.52 80
4 10/07/2025 15:49:29 0.07,-104.72 -0.57,-101.97 314.39 80
5 10/09/2025 04:08:39 -0.07,-104.67 -0.50,-106.60 219.87 80
6 10/10/2025 03:45:27 -0.08,-104.67 0.61,-101.63 345.67 80
7 10/11/2025 16:04:29 0.09,-104.71 0.43,-106.24 174.06 80
8 10/12/2025 15:46:37 0.09,-104.71 -0.68,-101.27 391.58 80
9 10/14/2025 04:05:47 -0.10,-104.66 -0.35,-105.91 142.57 80
10 10/15/2025 03:42:33 -0.10,-104.65 0.71,-100.93 423.15 80
11 10/16/2025 16:01:37 0.10,-104.70 0.26,-105.55 96.34 80
